{"data":{"norad_id":61733,"intl_designator":"2024-198A","name":"DSN-3 (KIRAMEKI-3)","alt_names":[],"object_type":"PAYLOAD","status":"ACTIVE","operator":null,"country":"JPN","launch_date":"2024-11-04","launch_site_code":"TANSC","launch_vehicle":null,"mission":null,"orbit_class":"UNKNOWN","rcs_meters":null,"size_class":null,"mass_kg":null,"dimensions":null,"purposes":["comms"],"wikipedia_slug":null,"has_3d_model":false,"image_url":null,"decayed_at":null,"tle_current":{"epoch":"2026-09-19T21:04:42.687840Z","epoch_age_seconds":72021,"freshness":"FRESH","line1":"1 61733U 24198A   26262.87827185 -.00000254  00000+0  00000+0 0  9998","line2":"2 61733   0.0190 239.7288 0001304 276.8006 302.5091  1.00271770  6863","mean_motion":1.0027177,"eccentricity":0.0001304,"inclination_deg":0.019,"raan_deg":239.7288,"arg_perigee_deg":276.8006,"mean_anomaly_deg":302.5091,"bstar":0,"rev_number":686,"period_min":1436.0971188601,"perigee_km":35781.10088464,"apogee_km":35792.097447832,"semimajor_km":42164.736166236,"source":"CELESTRAK","updated_at":"2026-09-20T09:00:35.339090Z"}}}